{"data":{"norad_id":56035,"intl_designator":"2023-042BB","name":"STARLINK-5792","alt_names":[],"object_type":"PAYLOAD","status":"ACTIVE","operator":null,"country":"US","launch_date":"2023-03-24","launch_site_code":"AFETR","launch_vehicle":null,"mission":null,"orbit_class":"UNKNOWN","rcs_meters":null,"size_class":null,"mass_kg":null,"dimensions":null,"purposes":["comms"],"wikipedia_slug":null,"has_3d_model":false,"image_url":null,"decayed_at":null,"tle_current":{"epoch":"2026-05-24T17:20:44.240064Z","epoch_age_seconds":99035,"freshness":"FRESH","line1":"1 56035U 23042BB  26144.72273426  .00000106  00000+0  13371-4 0  9995","line2":"2 56035  43.0057 335.8343 0001491 276.1520  83.9162 15.27582223174667","mean_motion":15.27582223,"eccentricity":0.0001491,"inclination_deg":43.0057,"raan_deg":335.8343,"arg_perigee_deg":276.152,"mean_anomaly_deg":83.9162,"bstar":1.3371e-5,"rev_number":17466,"period_min":94.266611532831,"perigee_km":482.01943773156,"apogee_km":484.06544144045,"semimajor_km":6861.179439586,"source":"CELESTRAK","updated_at":"2026-05-25T13:38:17.951524Z"}}}